Barter Island, AK

5:41 AM AKDT on April 28, 2017 (GMT -0800)
Barter Island LRRS

Weather History for PABA - April, 2013

Change the Weather History Date:

Tuesday, April 23, 2013

  Actual Average Record
Temperature  
Mean Temperature 28 °F -  
Max Temperature 27 °F 15 °F 78 °F (2008)
Min Temperature 25 °F 1 °F -14 °F (2011)
Degree Days  
Heating Degree Days 38    
Moisture  
Dew Point 26 °F    
Average Humidity 91    
Maximum Humidity 100    
Minimum Humidity 84    
Precipitation  
Precipitation 0.00 in - - ()
Sea Level Pressure  
Sea Level Pressure 30.03 in    
Wind  
Wind Speed 29 mph (West)    
Max Wind Speed 44 mph    
Max Gust Speed 52 mph    
Visibility 5 miles    
Events Fog , Snow    
Averages and records for this station are not official NWS values.
T = Trace of Precipitation, MM = Missing Value Source: NWS Daily Summary

Daily Weather History Graph

Daily Weather History Graph

Search for Another Location

Airport or City:

Trip Planner

Search our weather history database for the weather conditions in past years. The results will help you decide how hot, cold, wet, or windy it might be!

Date:

Astronomy

Apr. 23, 2013 Rise Set
Actual Time 4:45 AM AKDT 10:23 PM AKDT
Civil Twilight 2:54 AM AKDT 12:21 AM AKDT
Nautical Twilight Sun does not set Sun does not set
Astronomical Twilight Sun does not set Sun does not set
Moon 7:30 PM AKDT (4/23) 4:39 AM AKDT (4/23)
Length of Visible Light 21h 27m
Length of Day
17h 38m
Waxing Gibbous, 95% of the Moon is Illuminated
Apr 23
Waxing Gibbous
Apr 25
Full
May 2
Last Quarter
May 9
New
May 17
First Quarter

Hourly Weather History & Observations

Time (AKDT) Temp. Windchill Dew Point Humidity Pressure Visibility Wind Dir Wind Speed Gust Speed Precip Events Conditions
12:01 AM 28.0 °F 14.9 °F 24.1 °F 85% 30.14 in 10.0 mi West 19.6 mph 25.3 mph N/A   Unknown
1:01 AM 28.0 °F 15.3 °F 24.1 °F 85% 30.14 in 10.0 mi West 18.4 mph - N/A   Unknown
2:01 AM 27.0 °F 14.7 °F 24.1 °F 89% 30.14 in 10.0 mi West 16.1 mph - N/A   Unknown
3:01 AM 27.0 °F 13.9 °F 24.1 °F 89% 30.14 in 10.0 mi West 18.4 mph - N/A   Unknown
4:01 AM 25.0 °F 10.2 °F 23.0 °F 92% 30.14 in 10.0 mi West 21.9 mph - N/A   Unknown
5:01 AM 26.1 °F 12.7 °F 24.1 °F 92% 30.12 in 9.0 mi West 18.4 mph - 0.00 in Snow Light Snow
6:01 AM 26.1 °F 12.3 °F 23.0 °F 88% 30.10 in 10.0 mi West 19.6 mph - 0.00 in   Unknown
7:01 AM 26.1 °F 14.0 °F 21.9 °F 84% 30.09 in 10.0 mi West 15.0 mph - N/A   Unknown
8:01 AM 26.1 °F 13.1 °F 21.9 °F 84% 30.08 in 10.0 mi West 17.3 mph - N/A   Unknown
9:01 AM 26.1 °F 12.7 °F 21.9 °F 84% 30.07 in 10.0 mi West 18.4 mph - N/A   Unknown
10:01 AM 26.1 °F 9.3 °F 21.9 °F 84% 30.07 in 10.0 mi West 31.1 mph 36.8 mph N/A   Unknown
11:01 AM 27.0 °F 11.3 °F 24.1 °F 89% 30.06 in 10.0 mi West 27.6 mph 33.4 mph N/A   Unknown
12:01 PM 28.9 °F 13.7 °F 26.1 °F 89% 30.05 in 10.0 mi West 28.8 mph - N/A   Unknown
1:01 PM 30.0 °F 14.0 °F 26.1 °F 85% 30.07 in 9.0 mi West 34.5 mph 42.6 mph 0.00 in Snow Light Snow
2:01 PM 28.9 °F 12.1 °F 26.1 °F 89% 30.05 in 9.0 mi West 36.8 mph 44.9 mph 0.00 in   Unknown
3:01 PM 30.0 °F 14.0 °F 27.0 °F 88% 30.04 in 10.0 mi West 34.5 mph 46.0 mph N/A   Unknown
4:01 PM 30.0 °F 13.2 °F 27.0 °F 88% 30.04 in 5.0 mi West 39.1 mph 50.6 mph 0.00 in Snow Light Snow
4:08 PM 30.2 °F 13.7 °F 26.6 °F 86% 30.03 in 1.8 mi West 38.0 mph 51.8 mph 0.00 in Snow Light Snow
4:17 PM 30.2 °F 13.7 °F 26.6 °F 86% 30.03 in 3.0 mi West 38.0 mph 47.2 mph 0.00 in Snow Light Snow
4:26 PM 30.2 °F 12.7 °F 26.6 °F 86% - 1.8 mi West 43.7 mph 51.8 mph 0.00 in Snow Light Snow
4:30 PM 30.2 °F 13.1 °F 26.6 °F 86% 30.04 in 0.8 mi West 41.4 mph 51.8 mph 0.00 in Snow Light Snow
4:39 PM 28.4 °F 11.0 °F 26.6 °F 93% 30.03 in 0.5 mi West 39.1 mph 48.3 mph 0.00 in Fog , Snow Light Snow
4:49 PM 28.4 °F 10.8 °F 26.6 °F 93% 30.03 in 0.8 mi West 40.3 mph 47.2 mph 0.00 in Snow Light Snow
4:56 PM 28.4 °F 10.8 °F 26.6 °F 93% 30.03 in 0.5 mi West 40.3 mph 49.5 mph 0.00 in Fog , Snow Light Snow
5:01 PM 28.9 °F 11.9 °F 28.0 °F 96% 30.03 in 0.5 mi West 38.0 mph 49.5 mph 0.00 in Fog , Snow Light Snow
5:05 PM 28.4 °F 11.0 °F 28.4 °F 100% 30.03 in 1.0 mi West 39.1 mph 47.2 mph 0.00 in Snow Light Snow
5:13 PM 28.4 °F 11.6 °F 28.4 °F 100% 30.02 in 1.5 mi West 35.7 mph 44.9 mph 0.00 in Snow Light Snow
5:26 PM 30.2 °F 13.5 °F 28.4 °F 93% 30.03 in 2.0 mi West 39.1 mph 44.9 mph 0.00 in Snow Light Snow
5:33 PM 30.2 °F 14.1 °F 28.4 °F 93% 30.02 in 1.5 mi West 35.7 mph 44.9 mph 0.00 in Snow Light Snow
5:50 PM 30.2 °F 13.5 °F 28.4 °F 93% 30.02 in 3.0 mi West 39.1 mph 48.3 mph 0.00 in Snow Light Snow
6:01 PM 30.0 °F 13.4 °F 28.0 °F 92% 30.01 in 8.0 mi West 38.0 mph 47.2 mph 0.00 in   Unknown
7:01 PM 28.9 °F 12.1 °F 27.0 °F 92% 30.00 in 8.0 mi West 36.8 mph 43.7 mph 0.00 in Snow Light Snow
7:11 PM 28.4 °F 11.0 °F 26.6 °F 93% 30.00 in 1.5 mi West 39.1 mph 48.3 mph 0.00 in Snow Light Snow
7:21 PM 28.4 °F 11.2 °F 26.6 °F 93% 29.99 in 1.0 mi West 38.0 mph 48.3 mph 0.00 in Snow Light Snow
7:35 PM 28.4 °F 11.2 °F 26.6 °F 93% 29.99 in 0.8 mi West 38.0 mph 47.2 mph 0.00 in Snow Light Snow
8:01 PM 28.0 °F 10.5 °F 27.0 °F 96% 29.99 in 0.8 mi West 39.1 mph 46.0 mph 0.00 in Snow Light Snow
8:10 PM 28.4 °F 11.4 °F 26.6 °F 93% 29.97 in 0.5 mi West 36.8 mph 46.0 mph 0.00 in Fog , Snow Light Snow
8:18 PM 28.4 °F 11.4 °F 26.6 °F 93% 29.97 in 1.0 mi West 36.8 mph 42.6 mph 0.00 in Snow Light Snow
8:24 PM 28.4 °F 11.4 °F 26.6 °F 93% 29.97 in 2.0 mi West 36.8 mph 44.9 mph 0.00 in Snow Light Snow
8:34 PM 28.4 °F 11.4 °F 26.6 °F 93% 29.97 in 4.0 mi West 36.8 mph 43.7 mph 0.00 in Snow Light Snow
9:01 PM 28.0 °F 10.5 °F 27.0 °F 96% 29.95 in 7.0 mi West 39.1 mph 44.9 mph 0.00 in   Unknown
10:01 PM 28.0 °F 10.5 °F 26.1 °F 92% 29.93 in 9.0 mi West 39.1 mph 43.7 mph N/A   Unknown
11:01 PM 28.4 °F 11.2 °F 26.6 °F 93% 29.90 in 2.5 mi West 38.0 mph 48.3 mph 0.00 in Snow Light Snow
11:19 PM 28.4 °F 11.2 °F 26.6 °F 93% 29.89 in 4.0 mi West 38.0 mph 46.0 mph 0.00 in Snow Light Snow
11:36 PM 28.4 °F 11.0 °F 26.6 °F 93% 29.89 in 1.8 mi West 39.1 mph 46.0 mph 0.00 in Snow Light Snow
11:46 PM 28.4 °F 11.2 °F 26.6 °F 93% 29.88 in 3.0 mi West 38.0 mph 46.0 mph 0.00 in Snow Light Snow